| time (UTC) | temp C | wind direction | speed KPH | gust KPH | rain 1hr cm | rain 24hr cm | rain mn cm | humidity % | barometer mb |
| 20260506024600 | 16 | 205 | 1.6 | 9.7 | 0.00 | 0.00 | 0.00 | 62 | 1006.5 |
| 20260506024058 | 17 | 202 | 1.6 | 6.4 | 0.00 | 0.00 | 0.00 | 62 | 1006.5 |
| 20260506023557 | 17 | 185 | 1.6 | 9.7 | 0.00 | 0.00 | 0.00 | 61 | 1006.5 |
| 20260506023058 | 17 | 192 | 1.6 | 9.7 | 0.00 | 0.00 | 0.00 | 59 | 1006.5 |
| 20260506022557 | 17 | 193 | 3.2 | 9.7 | 0.00 | 0.00 | 0.00 | 58 | 1006.5 |
| 20260506022057 | 18 | 210 | 3.2 | 14.5 | 0.00 | 0.00 | 0.00 | 57 | 1006.5 |
| 20260506021601 | 18 | 195 | 1.6 | 14.5 | 0.00 | 0.00 | 0.00 | 55 | 1006.4 |
| 20260506021057 | 18 | 197 | 4.8 | 16.1 | 0.00 | 0.00 | 0.00 | 54 | 1006.5 |
| 20260506020557 | 19 | 194 | 4.8 | 16.1 | 0.00 | 0.00 | 0.00 | 54 | 1006.5 |
| 20260506020056 | 19 | 207 | 4.8 | 16.1 | 0.00 | 0.00 | 0.00 | 53 | 1006.5 |
| 20260506015556 | 19 | 196 | 6.4 | 14.5 | 0.00 | 0.00 | 0.00 | 54 | 1006.5 |
| 20260506015056 | 19 | 205 | 6.4 | 14.5 | 0.00 | 0.00 | 0.00 | 53 | 1006.5 |
| 20260506014603 | 19 | 196 | 4.8 | 16.1 | 0.00 | 0.00 | 0.00 | 53 | 1006.4 |
| 20260506014056 | 19 | 201 | 4.8 | 16.1 | 0.00 | 0.00 | 0.00 | 54 | 1006.4 |
| 20260506013555 | 19 | 226 | 4.8 | 16.1 | 0.00 | 0.00 | 0.00 | 54 | 1006.4 |
| 20260506013056 | 19 | 216 | 4.8 | 12.9 | 0.00 | 0.00 | 0.00 | 55 | 1006.3 |
| 20260506012555 | 19 | 212 | 4.8 | 12.9 | 0.00 | 0.00 | 0.00 | 54 | 1006.1 |
| 20260506012059 | 19 | 197 | 6.4 | 12.9 | 0.00 | 0.00 | 0.00 | 53 | 1006.1 |
| 20260506011555 | 20 | 194 | 3.2 | 16.1 | 0.00 | 0.00 | 0.00 | 55 | 1006.1 |
| 20260506011055 | 20 | 219 | 6.4 | 16.1 | 0.00 | 0.00 | 0.00 | 53 | 1006.0 |
| 20260506010556 | 20 | 196 | 6.4 | 14.5 | 0.00 | 0.00 | 0.00 | 54 | 1005.9 |
| 20260506010104 | 20 | 213 | 8.0 | 14.5 | 0.00 | 0.00 | 0.00 | 54 | 1005.9 |
| 20260506005555 | 20 | 204 | 4.8 | 14.5 | 0.00 | 0.00 | 0.00 | 53 | 1005.8 |
| 20260506005055 | 20 | 214 | 6.4 | 12.9 | 0.00 | 0.00 | 0.00 | 55 | 1005.8 |
| 20260506004555 | 20 | 224 | 3.2 | 12.9 | 0.00 | 0.00 | 0.00 | 54 | 1005.9 |
| 20260506004054 | 20 | 253 | 4.8 | 12.9 | 0.00 | 0.00 | 0.00 | 53 | 1005.9 |
| 20260506003554 | 20 | 211 | 4.8 | 9.7 | 0.00 | 0.00 | 0.00 | 53 | 1005.8 |
| 20260506003054 | 20 | 189 | 3.2 | 16.1 | 0.00 | 0.00 | 0.00 | 53 | 1005.8 |
| 20260506002555 | 20 | 220 | 6.4 | 17.7 | 0.00 | 0.00 | 0.00 | 53 | 1005.6 |
| 20260506002053 | 21 | 224 | 4.8 | 17.7 | 0.00 | 0.00 | 0.00 | 53 | 1005.6 |
| 20260506001558 | 21 | 206 | 3.2 | 14.5 | 0.00 | 0.00 | 0.00 | 52 | 1005.5 |
| 20260506001053 | 21 | 219 | 4.8 | 19.3 | 0.00 | 0.00 | 0.00 | 50 | 1005.4 |
| 20260506000552 | 22 | 232 | 4.8 | 19.3 | 0.00 | 0.00 | 0.00 | 49 | 1005.4 |
| 20260506000058 | 22 | 190 | 8.0 | 14.5 | 0.00 | 0.00 | 0.00 | 49 | 1005.2 |
| 20260505235556 | 22 | 224 | 4.8 | 12.9 | 0.00 | 0.00 | 0.00 | 48 | 1005.2 |
| 20260505235053 | 22 | 205 | 4.8 | 19.3 | 0.00 | 0.00 | 0.00 | 48 | 1005.1 |
| 20260505234553 | 22 | 197 | 8.0 | 20.9 | 0.00 | 0.00 | 0.00 | 48 | 1005.1 |
| 20260505234053 | 22 | 207 | 6.4 | 20.9 | 0.00 | 0.00 | 0.00 | 48 | 1005.0 |
| 20260505233551 | 23 | 166 | 11.3 | 24.1 | 0.00 | 0.00 | 0.00 | 48 | 1005.0 |
| 20260505233103 | 23 | 224 | 8.0 | 32.2 | 0.00 | 0.00 | 0.00 | 48 | 1005.0 |
| 20260505232551 | 23 | 220 | 11.3 | 32.2 | 0.00 | 0.00 | 0.00 | 47 | 1005.0 |
| 20260505232052 | 23 | 204 | 8.0 | 29.0 | 0.00 | 0.00 | 0.00 | 46 | 1005.0 |
| 20260505231552 | 23 | 228 | 9.7 | 29.0 | 0.00 | 0.00 | 0.00 | 47 | 1005.0 |
| 20260505231055 | 23 | 125 | 4.8 | 29.0 | 0.00 | 0.00 | 0.00 | 47 | 1004.9 |
| 20260505230550 | 23 | 194 | 6.4 | 19.3 | 0.00 | 0.00 | 0.00 | 47 | 1004.9 |
| 20260505230052 | 23 | 211 | 8.0 | 27.4 | 0.00 | 0.00 | 0.00 | 47 | 1004.9 |
| 20260505225550 | 23 | 176 | 11.3 | 27.4 | 0.00 | 0.00 | 0.00 | 47 | 1004.9 |
| 20260505225051 | 23 | 225 | 8.0 | 25.7 | 0.00 | 0.00 | 0.00 | 49 | 1005.0 |
| 20260505224550 | 23 | 205 | 6.4 | 25.7 | 0.00 | 0.00 | 0.00 | 48 | 1004.9 |
| 20260505224049 | 23 | 202 | 8.0 | 17.7 | 0.00 | 0.00 | 0.00 | 47 | 1004.9 |
| 20260505223550 | 24 | 216 | 6.4 | 17.7 | 0.00 | 0.00 | 0.00 | 47 | 1004.9 |
| 20260505223051 | 24 | 209 | 6.4 | 22.5 | 0.00 | 0.00 | 0.00 | 45 | 1004.9 |
| 20260505222549 | 24 | 211 | 8.0 | 22.5 | 0.00 | 0.00 | 0.00 | 44 | 1004.9 |
| 20260505222050 | 24 | 237 | 8.0 | 30.6 | 0.00 | 0.00 | 0.00 | 44 | 1004.9 |
| 20260505221551 | 25 | 211 | 11.3 | 30.6 | 0.00 | 0.00 | 0.00 | 43 | 1004.8 |
| 20260505221052 | 25 | 179 | 9.7 | 25.7 | 0.00 | 0.00 | 0.00 | 40 | 1005.0 |
| 20260505220548 | 25 | 251 | 6.4 | 35.4 | 0.00 | 0.00 | 0.00 | 40 | 1004.8 |
| 20260505220048 | 25 | 217 | 6.4 | 35.4 | 0.00 | 0.00 | 0.00 | 40 | 1004.9 |
| 20260505215548 | 25 | 213 | 8.0 | 25.7 | 0.00 | 0.00 | 0.00 | 40 | 1004.9 |
| 20260505215048 | 25 | 209 | 11.3 | 33.8 | 0.00 | 0.00 | 0.00 | 41 | 1004.9 |
| 20260505214548 | 25 | 189 | 9.7 | 33.8 | 0.00 | 0.00 | 0.00 | 40 | 1004.9 |
| 20260505214050 | 25 | 236 | 11.3 | 40.2 | 0.00 | 0.00 | 0.00 | 40 | 1004.9 |
| 20260505213546 | 25 | 217 | 14.5 | 40.2 | 0.00 | 0.00 | 0.00 | 39 | 1004.9 |
| 20260505213151 | 26 | 218 | 12.9 | 40.2 | 0.00 | 0.00 | 0.00 | 40 | 1004.8 |
| 20260505212546 | 26 | 265 | 14.5 | 40.2 | 0.00 | 0.00 | 0.00 | 40 | 1004.8 |
| 20260505212046 | 26 | 218 | 11.3 | 38.6 | 0.00 | 0.00 | 0.00 | 41 | 1004.7 |
| 20260505211546 | 26 | 230 | 16.1 | 35.4 | 0.00 | 0.00 | 0.00 | 43 | 1004.7 |
| 20260505211045 | 26 | 223 | 9.7 | 27.4 | 0.00 | 0.00 | 0.00 | 40 | 1004.8 |
| 20260505210544 | 26 | 233 | 12.9 | 30.6 | 0.00 | 0.00 | 0.00 | 39 | 1004.7 |
| 20260505210044 | 26 | 194 | 8.0 | 32.2 | 0.00 | 0.00 | 0.00 | 42 | 1004.8 |
| 20260505205544 | 26 | 208 | 6.4 | 32.2 | 0.00 | 0.00 | 0.00 | 44 | 1004.7 |
| 20260505205043 | 26 | 180 | 12.9 | 29.0 | 0.00 | 0.00 | 0.00 | 41 | 1004.7 |
| 20260505204542 | 26 | 224 | 14.5 | 32.2 | 0.00 | 0.00 | 0.00 | 41 | 1004.8 |
| 20260505204042 | 26 | 201 | 12.9 | 32.2 | 0.00 | 0.00 | 0.00 | 44 | 1004.8 |
| 20260505203541 | 26 | 210 | 9.7 | 29.0 | 0.00 | 0.00 | 0.00 | 44 | 1004.8 |
| 20260505203048 | 26 | 339 | 4.8 | 30.6 | 0.00 | 0.00 | 0.00 | 44 | 1004.9 |
| 20260505202541 | 26 | 208 | 9.7 | 30.6 | 0.00 | 0.00 | 0.00 | 44 | 1004.9 |
| 20260505202041 | 26 | 226 | 9.7 | 27.4 | 0.00 | 0.00 | 0.00 | 43 | 1004.9 |
| 20260505201540 | 26 | 237 | 9.7 | 35.4 | 0.00 | 0.00 | 0.00 | 44 | 1004.9 |
| 20260505201039 | 26 | 210 | 9.7 | 35.4 | 0.00 | 0.00 | 0.00 | 41 | 1005.0 |
| 20260505200539 | 26 | 211 | 11.3 | 30.6 | 0.00 | 0.00 | 0.00 | 43 | 1005.0 |
| 20260505200039 | 26 | 203 | 9.7 | 29.0 | 0.00 | 0.00 | 0.00 | 46 | 1005.0 |
| 20260505195539 | 26 | 249 | 12.9 | 29.0 | 0.00 | 0.00 | 0.00 | 44 | 1005.1 |
| 20260505195037 | 26 | 226 | 9.7 | 33.8 | 0.00 | 0.00 | 0.00 | 45 | 1005.0 |
| 20260505194536 | 26 | 242 | 12.9 | 33.8 | 0.00 | 0.00 | 0.00 | 47 | 1005.1 |
| 20260505194038 | 26 | 178 | 14.5 | 27.4 | 0.00 | 0.00 | 0.00 | 47 | 1005.1 |
| 20260505193535 | 26 | 198 | 6.4 | 30.6 | 0.00 | 0.00 | 0.00 | 48 | 1005.1 |
| 20260505193047 | 26 | 213 | 11.3 | 32.2 | 0.00 | 0.00 | 0.00 | 46 | 1005.3 |
| 20260505192533 | 26 | 235 | 11.3 | 32.2 | 0.00 | 0.00 | 0.00 | 47 | 1005.5 |
| 20260505192032 | 26 | 220 | 6.4 | 37.0 | 0.00 | 0.00 | 0.00 | 48 | 1005.5 |
| 20260505191539 | 26 | 229 | 17.7 | 37.0 | 0.00 | 0.00 | 0.00 | 46 | 1005.5 |
| 20260505191032 | 26 | 190 | 11.3 | 38.6 | 0.00 | 0.00 | 0.00 | 47 | 1005.7 |
| 20260505190534 | 26 | 197 | 9.7 | 38.6 | 0.00 | 0.00 | 0.00 | 46 | 1005.8 |
| 20260505190038 | 26 | 233 | 8.0 | 35.4 | 0.00 | 0.00 | 0.00 | 46 | 1005.7 |
| 20260505185531 | 26 | 216 | 16.1 | 30.6 | 0.00 | 0.00 | 0.00 | 48 | 1005.8 |
| 20260505185030 | 26 | 221 | 4.8 | 29.0 | 0.00 | 0.00 | 0.00 | 49 | 1005.7 |
| 20260505184629 | 26 | 203 | 6.4 | 29.0 | 0.00 | 0.00 | 0.00 | 48 | 1005.8 |
| 20260505184029 | 26 | 256 | 4.8 | 33.8 | 0.00 | 0.00 | 0.00 | 50 | 1005.9 |
| 20260505183527 | 26 | 199 | 16.1 | 32.2 | 0.00 | 0.00 | 0.00 | 49 | 1006.0 |
| 20260505183028 | 26 | 295 | 11.3 | 25.7 | 0.00 | 0.00 | 0.00 | 49 | 1005.9 |
| 20260505182526 | 26 | 232 | 8.0 | 25.7 | 0.00 | 0.00 | 0.00 | 49 | 1006.1 |
| 20260505182029 | 26 | 239 | 8.0 | 29.0 | 0.00 | 0.00 | 0.00 | 50 | 1006.2 |
| 20260505181526 | 26 | 161 | 12.9 | 29.0 | 0.00 | 0.00 | 0.00 | 47 | 1006.1 |
| 20260505181026 | 26 | 310 | 6.4 | 19.3 | 0.00 | 0.00 | 0.00 | 52 | 1006.3 |
| 20260505180525 | 25 | 235 | 8.0 | 27.4 | 0.00 | 0.00 | 0.00 | 50 | 1006.2 |
| 20260505180034 | 25 | 208 | 12.9 | 27.4 | 0.00 | 0.00 | 0.00 | 48 | 1006.4 |
| 20260505175528 | 25 | 221 | 3.2 | 19.3 | 0.00 | 0.00 | 0.00 | 52 | 1006.4 |
| 20260505175024 | 26 | 233 | 6.4 | 20.9 | 0.00 | 0.00 | 0.00 | 48 | 1006.4 |
| 20260505174524 | 26 | 235 | 4.8 | 16.1 | 0.00 | 0.00 | 0.00 | 49 | 1006.4 |
| 20260505174023 | 26 | 217 | 4.8 | 16.1 | 0.00 | 0.00 | 0.00 | 48 | 1006.4 |
| 20260505173527 | 26 | 224 | 3.2 | 16.1 | 0.00 | 0.00 | 0.00 | 46 | 1006.5 |
| 20260505173023 | 26 | 230 | 6.4 | 17.7 | 0.00 | 0.00 | 0.00 | 48 | 1006.5 |
| 20260505172524 | 26 | 302 | 8.0 | 20.9 | 0.00 | 0.00 | 0.00 | 50 | 1006.5 |
| 20260505172021 | 26 | 228 | 3.2 | 27.4 | 0.00 | 0.00 | 0.00 | 54 | 1006.4 |
| 20260505171520 | 26 | 189 | 8.0 | 25.7 | 0.00 | 0.00 | 0.00 | 52 | 1006.5 |
| 20260505171020 | 26 | 222 | 8.0 | 24.1 | 0.00 | 0.00 | 0.00 | 52 | 1006.7 |
| 20260505170517 | 25 | 345 | 8.0 | 16.1 | 0.00 | 0.00 | 0.00 | 51 | 1006.9 |
| 20260505170019 | 25 | 240 | 3.2 | 20.9 | 0.00 | 0.00 | 0.00 | 51 | 1006.9 |
| 20260505165517 | 25 | 221 | 6.4 | 20.9 | 0.00 | 0.00 | 0.00 | 50 | 1007.0 |
| 20260505165016 | 26 | 243 | 8.0 | 24.1 | 0.00 | 0.00 | 0.00 | 50 | 1007.1 |
| 20260505164515 | 25 | 187 | 4.8 | 24.1 | 0.00 | 0.00 | 0.00 | 50 | 1007.1 |
| 20260505164014 | 25 | 228 | 4.8 | 16.1 | 0.00 | 0.00 | 0.00 | 56 | 1007.1 |
| 20260505163512 | 25 | 221 | 6.4 | 16.1 | 0.00 | 0.00 | 0.00 | 55 | 1007.3 |
| 20260505163012 | 25 | 174 | 3.2 | 35.4 | 0.00 | 0.00 | 0.00 | 51 | 1007.3 |
| 20260505162511 | 25 | 230 | 6.4 | 40.2 | 0.00 | 0.00 | 0.00 | 51 | 1007.4 |
| 20260505162012 | 25 | 208 | 9.7 | 22.5 | 0.00 | 0.00 | 0.00 | 50 | 1007.5 |
| 20260505161509 | 25 | 162 | 3.2 | 11.3 | 0.00 | 0.00 | 0.00 | 56 | 1007.6 |
| 20260505161009 | 24 | 237 | 4.8 | 22.5 | 0.00 | 0.00 | 0.00 | 54 | 1007.7 |
| 20260505160509 | 24 | 218 | 6.4 | 22.5 | 0.00 | 0.00 | 0.00 | 52 | 1007.8 |
| 20260505153006 | 23 | 253 | 3.2 | 20.9 | 0.00 | 0.00 | 0.00 | 56 | 1008.0 |
| 20260505152504 | 23 | 235 | 3.2 | 20.9 | 0.00 | 0.00 | 0.00 | 57 | 1008.0 |
| 20260505152003 | 23 | 222 | 6.4 | 29.0 | 0.00 | 0.00 | 0.00 | 56 | 1007.9 |
| 20260505151503 | 23 | 219 | 9.7 | 29.0 | 0.00 | 0.00 | 0.00 | 57 | 1007.9 |
| 20260505151002 | 23 | 221 | 8.0 | 30.6 | 0.00 | 0.00 | 0.00 | 55 | 1008.0 |
| 20260505150605 | 23 | 243 | 8.0 | 30.6 | 0.00 | 0.00 | 0.00 | 58 | 1008.1 |
| 20260505140550 | 21 | 199 | 11.3 | 30.6 | 0.00 | 0.00 | 0.00 | 60 | 1008.2 |
| 20260505125031 | 18 | 224 | 4.8 | 20.9 | 0.00 | 0.00 | 0.00 | 69 | 1008.7 |
| 20260505124530 | 18 | 203 | 4.8 | 19.3 | 0.00 | 0.00 | 0.00 | 68 | 1008.7 |
| 20260505124029 | 18 | 276 | 9.7 | 22.5 | 0.00 | 0.00 | 0.00 | 68 | 1008.7 |
| 20260505123531 | 17 | 189 | 8.0 | 20.9 | 0.00 | 0.00 | 0.00 | 70 | 1008.7 |
| 20260505123026 | 17 | 226 | 11.3 | 20.9 | 0.00 | 0.00 | 0.00 | 69 | 1008.8 |
| 20260505122525 | 17 | 203 | 4.8 | 17.7 | 0.00 | 0.00 | 0.00 | 72 | 1008.9 |
| 20260505122024 | 17 | 208 | 3.2 | 16.1 | 0.00 | 0.00 | 0.00 | 72 | 1009.0 |
| 20260505121523 | 17 | 183 | 4.8 | 17.7 | 0.00 | 0.00 | 0.00 | 72 | 1009.0 |
| 20260505121021 | 16 | 190 | 3.2 | 17.7 | 0.00 | 0.00 | 0.00 | 74 | 1008.9 |
| 20260505120520 | 16 | 194 | 3.2 | 11.3 | 0.00 | 0.00 | 0.00 | 74 | 1008.9 |
| 20260505120033 | 16 | 267 | 0.0 | 11.3 | 0.00 | 0.00 | 0.00 | 74 | 1009.0 |
| 20260505115519 | 15 | 214 | 3.2 | 14.5 | 0.00 | 0.00 | 0.00 | 74 | 1009.0 |
| 20260505115019 | 15 | 211 | 6.4 | 14.5 | 0.00 | 0.00 | 0.00 | 75 | 1009.0 |
| 20260505114518 | 15 | 228 | 3.2 | 9.7 | 0.00 | 0.00 | 0.00 | 76 | 1009.0 |
| 20260505114017 | 15 | 226 | 3.2 | 9.7 | 0.00 | 0.00 | 0.00 | 78 | 1009.0 |
| 20260505113517 | 14 | 205 | 1.6 | 9.7 | 0.00 | 0.00 | 0.00 | 79 | 1008.8 |
| 20260505113017 | 14 | 212 | 1.6 | 8.0 | 0.00 | 0.00 | 0.00 | 80 | 1008.8 |
| 20260505112520 | 13 | 185 | 1.6 | 9.7 | 0.00 | 0.00 | 0.00 | 80 | 1008.8 |
| 20260505112015 | 13 | 156 | 3.2 | 9.7 | 0.00 | 0.00 | 0.00 | 80 | 1008.8 |
| 20260505111524 | 13 | 195 | 3.2 | 8.0 | 0.00 | 0.00 | 0.00 | 80 | 1008.7 |
| 20260505111015 | 13 | 205 | 1.6 | 9.7 | 0.00 | 0.00 | 0.00 | 80 | 1008.7 |
| 20260505110518 | 13 | 218 | 1.6 | 9.7 | 0.00 | 0.00 | 0.00 | 80 | 1008.7 |
| 20260505102010 | 13 | 193 | 3.2 | 11.3 | 0.00 | 0.00 | 0.00 | 80 | 1008.2 |
| 20260505101511 | 13 | 204 | 4.8 | 14.5 | 0.00 | 0.00 | 0.00 | 80 | 1008.2 |
| 20260505101014 | 13 | 199 | 4.8 | 14.5 | 0.00 | 0.00 | 0.00 | 80 | 1008.2 |
| 20260505100513 | 13 | 212 | 4.8 | 14.5 | 0.00 | 0.00 | 0.00 | 80 | 1008.2 |
| 20260505100010 | 13 | 199 | 3.2 | 16.1 | 0.00 | 0.00 | 0.00 | 80 | 1008.1 |
| 20260505095509 | 12 | 214 | 4.8 | 14.5 | 0.00 | 0.00 | 0.00 | 80 | 1008.1 |
| 20260505095008 | 12 | 198 | 4.8 | 12.9 | 0.00 | 0.00 | 0.00 | 80 | 1008.2 |
| 20260505094510 | 12 | 212 | 3.2 | 9.7 | 0.00 | 0.00 | 0.00 | 80 | 1008.0 |
| 20260505094008 | 12 | 224 | 3.2 | 14.5 | 0.00 | 0.00 | 0.00 | 80 | 1007.9 |
| 20260505093507 | 12 | 176 | 6.4 | 14.5 | 0.00 | 0.00 | 0.00 | 80 | 1007.8 |
| 20260505093007 | 12 | 212 | 4.8 | 12.9 | 0.00 | 0.00 | 0.00 | 80 | 1007.8 |
| 20260505092507 | 12 | 204 | 4.8 | 16.1 | 0.00 | 0.00 | 0.00 | 80 | 1007.8 |
| 20260505092007 | 12 | 191 | 4.8 | 16.1 | 0.00 | 0.00 | 0.00 | 80 | 1007.8 |
| 20260505091505 | 12 | 190 | 6.4 | 16.1 | 0.00 | 0.00 | 0.00 | 80 | 1007.9 |
| 20260505091004 | 12 | 197 | 4.8 | 14.5 | 0.00 | 0.00 | 0.00 | 79 | 1007.9 |
| 20260505090503 | 12 | 207 | 3.2 | 16.1 | 0.00 | 0.00 | 0.00 | 79 | 1007.8 |
| 20260505090003 | 12 | 212 | 4.8 | 16.1 | 0.00 | 0.00 | 0.00 | 79 | 1007.8 |
| 20260505085503 | 13 | 204 | 1.6 | 12.9 | 0.00 | 0.00 | 0.00 | 78 | 1007.8 |
| 20260505085004 | 13 | 222 | 3.2 | 12.9 | 0.00 | 0.00 | 0.00 | 78 | 1007.8 |
| 20260505084502 | 13 | 191 | 4.8 | 12.9 | 0.00 | 0.00 | 0.00 | 78 | 1007.7 |
| 20260505084003 | 13 | 202 | 3.2 | 11.3 | 0.00 | 0.00 | 0.00 | 78 | 1007.8 |
| 20260505083501 | 13 | 206 | 3.2 | 12.9 | 0.00 | 0.00 | 0.00 | 79 | 1007.7 |
| 20260505083000 | 12 | 206 | 1.6 | 14.5 | 0.00 | 0.00 | 0.00 | 79 | 1007.7 |
| 20260505082600 | 12 | 216 | 3.2 | 8.0 | 0.00 | 0.00 | 0.00 | 79 | 1007.7 |
| 20260505082100 | 13 | 208 | 1.6 | 8.0 | 0.00 | 0.00 | 0.00 | 79 | 1007.6 |
| 20260505081604 | 13 | 189 | 1.6 | 12.9 | 0.00 | 0.00 | 0.00 | 78 | 1007.7 |
| 20260505081059 | 13 | 200 | 1.6 | 12.9 | 0.00 | 0.00 | 0.00 | 78 | 1007.7 |
| 20260505080557 | 13 | 184 | 3.2 | 11.3 | 0.00 | 0.00 | 0.00 | 78 | 1007.6 |
| 20260505075558 | 13 | 169 | 4.8 | 16.1 | 0.00 | 0.00 | 0.00 | 77 | 1007.5 |
| 20260505075056 | 13 | 202 | 4.8 | 16.1 | 0.00 | 0.00 | 0.00 | 77 | 1007.5 |
| 20260505074555 | 13 | 208 | 3.2 | 16.1 | 0.00 | 0.00 | 0.00 | 76 | 1007.4 |
| 20260505074055 | 13 | 195 | 3.2 | 16.1 | 0.00 | 0.00 | 0.00 | 76 | 1007.5 |
| 20260505073555 | 13 | 230 | 3.2 | 11.3 | 0.00 | 0.00 | 0.00 | 76 | 1007.3 |
| 20260505073100 | 14 | 206 | 4.8 | 12.9 | 0.00 | 0.00 | 0.00 | 76 | 1007.3 |
| 20260505072558 | 13 | 191 | 6.4 | 12.9 | 0.00 | 0.00 | 0.00 | 76 | 1007.3 |
| 20260505072054 | 13 | 210 | 6.4 | 12.9 | 0.00 | 0.00 | 0.00 | 77 | 1007.2 |
| 20260505071612 | 13 | 205 | 4.8 | 12.9 | 0.00 | 0.00 | 0.00 | 77 | 1007.3 |
| 20260505071057 | 13 | 201 | 4.8 | 16.1 | 0.00 | 0.00 | 0.00 | 77 | 1007.3 |
| 20260505070654 | 13 | 211 | 6.4 | 16.1 | 0.00 | 0.00 | 0.00 | 77 | 1007.3 |
| 20260505070055 | 13 | 184 | 4.8 | 14.5 | 0.00 | 0.00 | 0.00 | 77 | 1007.3 |
| 20260505065553 | 13 | 222 | 3.2 | 14.5 | 0.00 | 0.00 | 0.00 | 78 | 1007.3 |
| 20260505065052 | 13 | 209 | 4.8 | 14.5 | 0.00 | 0.00 | 0.00 | 78 | 1007.3 |
| 20260505064551 | 13 | 220 | 3.2 | 12.9 | 0.00 | 0.00 | 0.00 | 78 | 1007.3 |
| 20260505064053 | 13 | 205 | 3.2 | 12.9 | 0.00 | 0.00 | 0.00 | 79 | 1007.3 |
| 20260505063552 | 13 | 207 | 1.6 | 14.5 | 0.00 | 0.00 | 0.00 | 79 | 1007.3 |
| 20260505063053 | 13 | 210 | 1.6 | 9.7 | 0.00 | 0.00 | 0.00 | 79 | 1007.4 |
| 20260505062549 | 13 | 205 | 1.6 | 9.7 | 0.00 | 0.00 | 0.00 | 78 | 1007.5 |
| 20260505062048 | 13 | 210 | 0.0 | 11.3 | 0.00 | 0.00 | 0.00 | 79 | 1007.5 |
| 20260505061550 | 13 | 203 | 3.2 | 12.9 | 0.00 | 0.00 | 0.00 | 79 | 1007.6 |
| 20260505061048 | 13 | 200 | 4.8 | 12.9 | 0.00 | 0.00 | 0.00 | 79 | 1007.5 |
| 20260505060548 | 13 | 237 | 1.6 | 9.7 | 0.00 | 0.00 | 0.00 | 79 | 1007.6 |
| 20260505060058 | 13 | 216 | 1.6 | 9.7 | 0.00 | 0.00 | 0.00 | 79 | 1007.7 |
| 20260505055548 | 13 | 189 | 3.2 | 11.3 | 0.00 | 0.00 | 0.00 | 79 | 1007.6 |
| 20260505055050 | 13 | 212 | 4.8 | 11.3 | 0.00 | 0.00 | 0.00 | 79 | 1007.7 |
| 20260505054546 | 13 | 200 | 1.6 | 8.0 | 0.00 | 0.00 | 0.00 | 79 | 1007.7 |
| 20260505054044 | 13 | 218 | 1.6 | 8.0 | 0.00 | 0.00 | 0.00 | 79 | 1007.7 |
| 20260505053543 | 13 | 166 | 1.6 | 11.3 | 0.00 | 0.00 | 0.00 | 78 | 1007.7 |
| 20260505053043 | 13 | 205 | 1.6 | 12.9 | 0.00 | 0.00 | 0.00 | 78 | 1007.7 |
| 20260505052540 | 13 | 207 | 1.6 | 12.9 | 0.00 | 0.00 | 0.00 | 77 | 1007.8 |
| 20260505052039 | 14 | 198 | 3.2 | 16.1 | 0.00 | 0.00 | 0.00 | 77 | 1007.8 |
| 20260505051539 | 14 | 232 | 4.8 | 16.1 | 0.00 | 0.00 | 0.00 | 76 | 1007.7 |
| 20260505051038 | 14 | 187 | 3.2 | 16.1 | 0.00 | 0.00 | 0.00 | 76 | 1007.7 |
| 20260505050536 | 15 | 198 | 4.8 | 16.1 | 0.00 | 0.00 | 0.00 | 75 | 1007.7 |
| 20260505041532 | 16 | 209 | 8.0 | 19.3 | 0.00 | 0.00 | 0.00 | 72 | 1007.3 |
| 20260505041027 | 15 | 208 | 6.4 | 19.3 | 0.00 | 0.00 | 0.00 | 72 | 1007.3 |
| 20260505040531 | 16 | 216 | 8.0 | 14.5 | 0.00 | 0.00 | 0.00 | 72 | 1007.4 |
| 20260505040025 | 16 | 174 | 6.4 | 16.1 | 0.00 | 0.00 | 0.00 | 71 | 1007.3 |
| 20260505035527 | 16 | 201 | 4.8 | 16.1 | 0.00 | 0.00 | 0.00 | 69 | 1007.3 |
| 20260505035023 | 17 | 187 | 6.4 | 19.3 | 0.00 | 0.00 | 0.00 | 68 | 1007.3 |
| 20260505034524 | 17 | 227 | 9.7 | 22.5 | 0.00 | 0.00 | 0.00 | 67 | 1007.3 |
| 20260505034024 | 17 | 208 | 9.7 | 19.3 | 0.00 | 0.00 | 0.00 | 67 | 1007.3 |
| 20260505033522 | 17 | 223 | 9.7 | 19.3 | 0.00 | 0.00 | 0.00 | 67 | 1007.3 |
| 20260505033022 | 17 | 206 | 6.4 | 20.9 | 0.00 | 0.00 | 0.00 | 66 | 1007.4 |
| 20260505032522 | 17 | 231 | 9.7 | 25.7 | 0.00 | 0.00 | 0.00 | 66 | 1007.4 |
| 20260505032023 | 17 | 220 | 6.4 | 25.7 | 0.00 | 0.00 | 0.00 | 65 | 1007.4 |
| 20260505031521 | 17 | 189 | 11.3 | 25.7 | 0.00 | 0.00 | 0.00 | 66 | 1007.5 |
| 20260505031021 | 17 | 203 | 11.3 | 24.1 | 0.00 | 0.00 | 0.00 | 66 | 1007.5 |
| 20260505030521 | 17 | 234 | 8.0 | 24.1 | 0.00 | 0.00 | 0.00 | 66 | 1007.4 |
| 20260505030021 | 17 | 226 | 9.7 | 22.5 | 0.00 | 0.00 | 0.00 | 66 | 1007.4 |
| 20260505025524 | 17 | 205 | 8.0 | 29.0 | 0.00 | 0.00 | 0.00 | 67 | 1007.4 |
| 20260505025020 | 17 | 217 | 8.0 | 29.0 | 0.00 | 0.00 | 0.00 | 67 | 1007.3 |